Regional Weather Roundup
Issued by NWS

Current Version | Previous Version | Text Only | Print | Product List | Glossary Off
Versions: 1 2 3 4 5 6 7 8 9 10 11 12 13 14 15 16 17 18 19 20 21 22 23 24 25 26 27 28 29 30 31 32 33 34 35 36 37 38 39 40 41 42 43 44 45 46 47 48 49 50

000
ASUS42 KFFC 191903
RWRGA
WEATHER ROUNDUP FOR GEORGIA
NATIONAL WEATHER SERVICE PEACHTREE CITY GA
300 PM EDT SUN APR 19 2015

NOTE: "FAIR" INDICATES FEW OR NO CLOUDS BELOW 12,000 FEET WITH NO
SIGNIFICANT WEATHER AND/OR OBSTRUCTIONS TO VISIBILITY.

* = USE WITH CAUTION. THE STATIONS MARKED WITH AN ASTERISK MAY NOT
REPORT WEATHER SUCH AS PRECIPITATION, FOG, OR THUNDER AND ARE NOT
QUALITY CONTROLLED BY NWS.

THE REMARK "TC" DENOTES TEMPERATURE READING IN DEGREES CELSIUS.

GAZ001>058-192000-
NORTH GEORGIA

CITY           SKY/WX    TMP DP  RH WIND       PRES   REMARKS
ATLANTA        LGT RAIN  68  65  90 S10G17    29.79F
ATHENS         HVY RAIN  67  66  97 SW9G23    29.79F FOG
CHAMBLEE       CLOUDY    68  67  96 S9        29.78F
PEACHTREE CITY CLOUDY    68  66  93 S8        29.80F
ROME           CLOUDY    73  66  78 S10       29.72F
WEST ATLANTA   CLOUDY    70  67  90 S9        29.77F
GAINESVILLE    CLOUDY    67  65  93 S8        29.80F
CARTERSVILLE   CLOUDY    72  65  78 S7        29.76F


CITY           SKY/WX    TMP DP  RH WIND       PRES   REMARKS
DALTON*        CLOUDY    68  66  94 CALM      29.74F
LAWRENCEVILLE* LGT RAIN  66  61  82 SW9G17    29.79F FOG
MARIETTA       CLOUDY    70  69  97 VRB5      29.77F
BLAIRSVILLE*     N/A     65  59  82 E5        29.79F
$$

GAZ059>098-102>109-192000-
CENTRAL GEORGIA

CITY           SKY/WX    TMP DP  RH WIND       PRES   REMARKS
AUGUSTA-BUSH   LGT RAIN  74  71  91 SE7       29.81F
AUGUSTA-DANIEL LGT RAIN  74  70  87 SE6       29.82F
COLUMBUS       CLOUDY    67  64  90 SW8       29.81F
MACON          LGT RAIN  69  66  90 SW9       29.83F
ROBINS AFB     CLOUDY    69  67  90 S8        29.83F


CITY           SKY/WX    TMP DP  RH WIND       PRES   REMARKS
LAGRANGE*      CLOUDY    74  71  89 S14G21    29.78F
SYLVANIA*      CLOUDY    78  73  84 S6        29.85F
MILLEDGEVILLE* CLOUDY    70  70 100 CALM      29.83S
$$

GAZ099>101-110>166-192000-
SOUTH GEORGIA

CITY           SKY/WX    TMP DP  RH WIND       PRES   REMARKS
SAVANNAH       CLOUDY    80  70  71 S12       29.85F
VALDOSTA       TSTM      69  68  96 W12G23    29.93R VSB 1/4
ALMA           TSTM      71  68  90 S12G23    29.88R
ST SIMONS      CLOUDY    76  71  85 S13       29.85F
FT STEWART     CLOUDY    80  71  75 SE6       29.83F
ALBANY         LGT RAIN  66  64  93 S6        29.88F FOG
HUNTER AFB     CLOUDY    78  74  89 SE7       29.84F
MOODY AFB      TSTM      77  69  78 W14       29.89R
BRUNSWICK      CLOUDY    81  70  69 S8        29.85F


CITY           SKY/WX    TMP DP  RH WIND       PRES   REMARKS
BAINBRIDGE*    TSTM      68  68 100 S8        29.88F
MOULTRIE*      TSTM      66 N/A N/A W5        29.92F
VIDALIA*       LGT RAIN  73  72  94 S6        29.86F
WAYCROSS*      HVY RAIN  74  71  89 W12G24      N/A
DOUGLAS*       CLOUDY    70  64  83 NW13G20   29.91R
$$


USA.gov is the U.S. government's official web portal to all federal, state and local government web resources and services.